RED-EYE 3 (CABERNET)

Last updated on Tue Nov 15 2022 00:02:07 GMT+0000 (Coordinated Universal Time)

1 45809U 98067RN 22318.21629946 .22986766 12640-4 27443-3 0 9997 2 45809 51.6428 246.1186 0003468 234.6112 237.8129 16.49752010136290

Satellite not in orbit